SCP
0 0 0 0 0 0 0 0 0 0 0 0 0 0 0 0 0 0 0 0 0 0 0 0 0 0 0 0 0 0 0 0 0 0 0 0 0 0
0 0 0 0 0 0 0 0 0 0 0 0 0 0 0 0 0 0 0 0 0 0 0 0 0 0 0 0 0 0 0 0 0 0 0 0 0 0
0 0 0 0 0 0 0 0 0 0 0 0 0 0 0 0 0 0 0 0 0 0 0 0 0 0 0 0 0 0 0 0 0 0 0 0 0 0
0 0 0 0 0 0 0 0 0 0 0 -0 -0 0 0 0 0 0 0 0 0 0 0 0 0 0 0 0 0 0 0 0 0 0 0 0 0 0
0 0 0 0 0 0 0 0 0 0 0 0 0 0 0 0 0 0 0 0 0 0 0 0 0 0 0 0 0 0 0 0 0 0 0 0 0 0
0 0 0 0 0 -0 -0 -0 -0 0 0 0 0 0 0 0 0 0 0 0 0 0 0 0 0 0 0 0 0 0 0 0 0 0 0 0 0 0
0 0 0 0 0 0 -0 0 0 0 0 0 0 0 0 0 0 0 0 0 0 0 0 0 0 0 0 0 0 0 0 0 0 0 0 0 0 0
0 0 0 0 0 0 0 0 0 0 0 0 0 0 0 0 0 0 0 0 0 0 0 0 0 0 0 0 0 0 0 0 0 0 0 0 0 0
0 0 0 0 0 0 0 0 0 0 0 0 0 0 0 0 0 0 0 0 0 0 0 0 0 0 0 0 0 0 0 0 0 0 0 0 0 0
0 0 0 0 0 0 0 0 0 0 0 0 0 0 0 0 0 0 0 0 0 0 0 0 0 0 0 0 0 0 0 0 0 0 0 0 0 0
0 0 0 0 0 0 0 0 0 0 0 0 0 0 0 0 0 0 0 0 0 0 0 0 0 0 0 0 0 0 0 0 0 0 0 0 0 0
0 0 0 0 0 0 0 0 0 0 0 0 0 0 0 0 0 0 0 0 0 0 0 0 0 0 0 0 0 0 0 0 0 0 0 0 0 0
0 0 0 0 0 0 0 0 0 0 0 0 0 0 0 0 0 0 0 0 0 0 0 0 0 0 0 0 0 0 0 0 0 0 0 0 0 0
0 0 0 0 0 0 0 0 0 0 0 0 0 0 0 0 0 0 0 0 0 0 0 0 0 0 0 0 0 0 0 0 0 0 0 0 0 0
0 0 0 0 0 0 0 0 0 0 0 0 0 0 0 0 0 0 0 0 0 0 0 0 0 0 0 0 0 0 0 0 0 0 0 0 0 0
0 0 0 0 0 0 0 0 0 0 0 0 0 0 0 0 0 0 0 0 0 0 0 0 0 0 0 0 0 0 0 0 0 0 0 0 0 0
0 0 0 0 0 0 0 0 0 0 0 0 0 0 0 0 0 0 0 0 0 0 0 0 0 0 0 0 0 0 0 0 0 0 0 0 0 0
0 0 0 0 0 0 0 0 0 0 0 0 0 0 0 0 0 0 0 0 0 0 0 0 0 0 0 0 0 0 0 0 0 0 0 0 0 0
0 0 0 0 0 0 0 0 0 0 0 0 0 0 0 0 0 0 0 0 0 0 0 0 0 0 0 0 0 0 0 0 0 0 0 0 0 0
0 0 0 0 0 0 0 0 0 0 0 0 0 0 0 0 0 0 0 0 0 0 0 0 0 0 0 0 0 0 0 0 0 0 0 0 0 0
0 0 0 0 0 0 0 0 0 0 0 0 0 0 0 0 0 0 0 0 0 0 0 0 0 0 0 0 0 0 0 0 0 0 0 0 0 0
0 0 0 0 0 0 0 0 0 0 0 0 0 0 0 0 0 0 0 0 0 0 0 0 0 0 0 0 0 0 0 0 0 0 0 0 0 0
0 0 0 0 0 0 0 0 0 0 0 0 0 0 0 0 0 0 0 0 0 0 0 0 0 0 0 0 0 0 0 0 0 0 0 0 0 0
Wind_Speed
4 4 3 3 2 2 3 3 4 3 1 2 2 2 2 2 4 4 4 8 11 11 12 13 13 13 14 14 14 14 14 14 14 14 14 14 14 13
3 5 4 3 3 3 2 2 3 4 2 1 1 2 2 2 4 3 4 7 9 9 10 10 11 11 11 11 12 12 12 12 12 12 12 12 12 12
4 5 4 3 3 3 3 3 3 3 4 1 1 2 2 3 3 3 3 3 3 7 7 8 8 9 9 9 9 9 10 10 10 11 11 11 11 11
3 4 3 3 4 3 3 3 3 3 4 2 1 2 2 2 2 2 2 2 2 4 5 6 6 7 7 7 7 8 8 8 8 9 9 10 10 11
4 4 3 4 4 3 3 3 2 3 3 3 1 1 2 2 2 3 3 3 3 3 4 5 6 6 6 5 5 5 5 6 6 7 8 9 9 10
3 3 3 4 4 3 3 3 3 4 3 3 1 1 2 2 2 2 3 3 3 3 4 4 5 6 6 5 4 4 4 4 5 6 7 7 8 9
3 2 3 4 5 4 4 3 4 3 3 2 1 1 2 2 1 1 1 2 3 2 2 2 2 2 3 4 4 4 3 4 4 5 6 7 7 8
3 2 2 3 5 6 6 6 6 5 3 2 1 1 1 1 1 0 0 1 3 3 1 3 2 2 2 2 3 4 4 4 5 5 6 6 7 7
3 3 2 2 3 3 4 5 4 4 5 5 3 2 2 2 1 0 0 1 2 3 1 2 2 2 3 3 4 4 4 5 5 6 6 6 7 7
3 4 4 3 3 4 4 3 2 1 1 2 3 3 2 2 3 2 2 1 2 2 1 1 3 3 3 3 5 5 4 5 6 7 7 7 7 7
2 3 4 4 5 6 5 3 1 1 1 1 2 1 0 1 2 2 1 1 2 3 1 1 2 3 3 3 4 6 5 5 7 7 7 7 7 7
1 1 4 5 6 7 5 4 3 2 0 1 2 2 2 2 1 1 2 1 1 2 2 1 1 2 3 3 2 3 3 5 7 7 8 8 8 4
2 1 2 5 5 6 5 4 5 3 1 1 0 1 2 2 2 1 1 2 2 3 2 2 1 1 1 3 3 3 2 3 3 4 6 8 8 5
3 3 3 5 5 5 4 4 4 3 2 1 0 1 1 2 2 2 1 2 3 4 3 2 2 2 2 3 4 4 3 3 2 3 3 6 7 8
3 5 4 4 3 2 3 3 3 2 2 1 1 2 2 2 1 2 2 2 2 3 3 2 3 2 2 3 4 4 4 4 3 3 3 3 4 4
2 3 3 2 2 1 1 1 1 2 2 2 2 2 1 1 1 1 1 2 2 4 4 3 2 3 3 4 4 4 3 3 3 4 4 4 4 4
4 2 2 1 1 0 0 0 0 1 1 1 1 1 1 1 2 1 1 1 1 3 4 4 3 2 4 4 3 4 4 4 4 4 4 5 5 4
6 3 2 2 2 2 2 1 1 1 1 1 1 1 1 2 2 2 1 1 2 3 3 3 3 3 3 3 4 4 4 4 4 4 3 4 6 5
4 3 3 3 3 2 2 2 2 2 1 1 1 1 1 2 2 2 2 2 3 3 3 2 2 1 3 6 5 3 3 4 4 4 4 4 6 6
3 3 3 3 3 3 3 2 2 1 1 1 1 1 1 1 1 2 2 2 3 3 3 3 2 2 3 5 5 4 4 4 3 5 5 5 5 8
3 3 3 3 3 3 3 2 2 2 2 1 1 1 1 1 1 2 2 3 2 2 3 4 4 5 3 2 4 4 4 5 5 5 5 5 6 5
3 3 3 3 3 3 3 2 2 2 2 2 2 2 1 1 2 2 2 2 2 3 4 4 4 3 2 3 5 6 6 5 6 9 9 8 5 6
4 3 3 3 3 3 3 3 3 3 2 2 2 2 2 2 2 2 2 2 2 3 3 3 3 3 3 3 5 6 7 7 5 5 5 9 12 14
Wind_Direction
82 82 78 65 72 85 111 130 136 129 17 336 354 346 358 20 27 35 34 46 50 51 52 53 54 55 56 57 55 52 49 47 46 44 43 41 39 38
82 80 73 66 67 71 90 97 110 131 139 294 300 317 353 35 41 34 33 43 47 50 52 54 55 55 55 55 53 51 48 45 43 42 40 38 35 32
78 85 78 74 74 64 75 84 91 110 117 5 352 360 21 26 17 18 23 23 30 43 47 48 49 51 52 54 52 48 45 43 41 38 35 33 30 27
95 93 86 83 73 67 76 81 85 95 119 115 360 4 8 357 4 11 17 23 16 29 36 38 39 41 42 46 48 46 44 41 38 34 30 26 23 21
117 114 110 100 86 78 81 84 84 82 86 112 70 355 355 0 17 9 12 358 359 19 25 29 33 34 33 34 35 35 33 33 32 28 23 19 15 13
113 118 120 123 127 117 100 99 100 88 80 89 75 10 352 345 29 12 358 351 351 5 14 23 19 16 13 10 12 13 15 18 20 15 9 6 5 5
103 101 115 129 136 133 126 128 116 104 93 88 72 25 353 352 334 319 351 334 336 352 357 352 352 349 342 340 345 353 0 360 357 356 355 355 354 355
127 113 100 106 111 111 114 127 134 133 137 129 131 162 266 268 291 344 358 9 332 327 11 334 354 323 306 306 330 343 347 344 343 345 346 346 345 344
150 146 131 120 116 106 95 89 90 118 141 150 157 197 213 223 181 56 239 202 248 290 29 317 329 316 305 320 324 331 336 338 341 338 337 336 335 334
158 160 154 159 156 140 118 90 56 34 141 146 166 197 202 198 179 183 195 221 297 316 89 294 316 308 315 315 331 340 337 336 336 331 327 326 325 326
165 168 165 169 171 151 132 129 95 339 16 116 144 147 100 145 142 97 58 52 337 311 319 203 300 312 315 316 334 348 343 336 333 331 328 326 324 325
163 186 183 177 173 160 151 152 165 239 294 25 15 355 347 357 24 149 169 156 224 298 293 196 297 341 326 308 313 323 328 323 324 325 326 325 325 322
177 199 209 184 173 168 166 172 190 188 164 140 13 350 350 340 322 286 191 170 183 241 256 177 239 266 254 296 307 300 299 299 307 313 318 321 320 315
189 200 197 174 170 169 174 183 174 147 121 105 54 317 308 301 295 287 257 226 218 231 248 185 202 220 241 282 290 300 301 291 288 293 298 311 308 308
187 179 171 161 157 164 172 166 155 137 131 137 236 266 267 274 301 323 326 312 298 285 284 233 217 230 214 240 266 280 297 296 280 285 288 287 282 288
173 153 142 132 136 130 102 129 151 159 165 194 235 268 302 329 323 305 307 322 328 312 305 285 253 229 245 252 253 271 272 278 291 285 282 282 279 274
140 106 90 90 100 67 52 49 88 118 172 226 234 286 310 318 310 317 310 321 296 297 310 313 299 266 242 246 264 270 275 278 279 290 297 294 285 282
136 150 176 182 191 195 193 209 212 215 222 215 221 242 265 278 294 309 311 292 287 289 293 300 322 334 331 298 239 259 278 280 288 291 285 290 292 290
150 175 187 194 199 197 198 202 218 228 214 200 219 242 257 273 288 298 304 304 296 294 296 304 319 327 316 307 296 259 268 290 298 296 284 274 282 289
175 184 196 200 200 201 204 212 223 218 200 208 220 233 239 251 274 287 287 285 291 298 306 312 300 277 267 277 284 292 278 276 291 296 292 286 279 284
193 199 201 198 199 199 201 200 197 198 201 203 213 223 229 232 262 277 282 291 294 298 298 294 285 292 287 303 300 296 286 275 277 283 290 296 302 301
190 197 202 200 198 196 194 192 195 201 204 211 225 231 233 230 246 260 269 277 278 278 284 291 306 319 316 292 291 295 298 299 295 294 285 279 286 292
199 199 200 199 199 194 192 195 200 211 212 214 223 231 232 244 252 255 263 267 278 288 297 305 314 309 291 280 286 292 297 302 305 306 294 295 295 293